Location: Gorze? G�rny
(49.8500°N, 19.5000°E)
Time: 10:51:46
(UTC+00:00)

NOSS 2-1 (D) - Pass Details

Date: 13 May 2021
Orbit: 431 x 1770 km, 63.3° (Epoch: 26 May)

Event Time Altitude Azimuth Distance (km) Brightness Sun altitude
Rises 22:23:24 0° 317° (NW) 2,832 7.7 -21.5°
Reaches altitude 10° 22:25:21 10° 319° (NW) 2,056 6.9 -21.5°
Maximum altitude 22:30:00 77° 46° (NE) 832 4.2 -21.5°
Enters shadow 22:33:33 26° 129° (SE) 1,747 5.5 -21.5°
